This is the latest recevied weather packets stored in our database for station/object KK6LZB. If no packets are shown the sender has not sent any weather packets the latest 1 day(s).
| Time | Temp. | Humidity | Pressure | Rain* | Wind** | Luminosity | Snow |
|---|---|---|---|---|---|---|---|
| 1778010985 | 18.33° C | 67% | 1017.3 hPa | 0 mm | 2.24 m/s, 277° | 479 W/m² | - |
| 1778010683 | 19.44° C | 64% | 1017.3 hPa | 0 mm | 2.24 m/s, 203° | 483 W/m² | - |
| 1778010380 | 20° C | 61% | 1017.3 hPa | 0 mm | 2.68 m/s, 200° | 778 W/m² | - |
| 1778010076 | 20° C | 62% | 1017.4 hPa | 0 mm | 2.24 m/s, 259° | 770 W/m² | - |
| 1778009773 | 20.56° C | 61% | 1017.4 hPa | 0 mm | 1.79 m/s, 227° | 752 W/m² | - |
| 1778009470 | 18.89° C | 66% | 1017.4 hPa | 0 mm | 2.24 m/s, 213° | 744 W/m² | - |
| 1778009169 | 18.89° C | 64% | 1017.3 hPa | 0 mm | 1.34 m/s, 278° | 741 W/m² | - |
| 1778008866 | 19.44° C | 62% | 1017.4 hPa | 0 mm | 3.13 m/s, 264° | 734 W/m² | - |
| 1778008564 | 19.44° C | 62% | 1017.5 hPa | 0 mm | 1.34 m/s, 271° | 728 W/m² | - |
| 1778008261 | 18.89° C | 66% | 1017.5 hPa | 0 mm | 0.89 m/s, 255° | 725 W/m² | - |
| 1778007956 | 19.44° C | 63% | 1017.7 hPa | 0 mm | 0.89 m/s, 16° | 725 W/m² | - |
| 1778007652 | 20° C | 62% | 1017.5 hPa | 0 mm | 3.58 m/s, 217° | 719 W/m² | - |
| 1778007349 | 19.44° C | 64% | 1017.4 hPa | 0 mm | 3.13 m/s, 254° | 715 W/m² | - |
| 1778007045 | 19.44° C | 62% | 1017.6 hPa | 0 mm | 0.45 m/s, 187° | 713 W/m² | - |
| 1778006742 | 19.44° C | 59% | 1017.4 hPa | 0 mm | 2.68 m/s, 242° | 709 W/m² | - |
| 1778006438 | 19.44° C | 61% | 1017.4 hPa | 0 mm | 0.89 m/s, 260° | 701 W/m² | - |
| 1778006135 | 20° C | 60% | 1017.5 hPa | 0 mm | 0.89 m/s, 301° | 702 W/m² | - |
| 1778005833 | 18.89° C | 64% | 1017.4 hPa | 0 mm | 1.34 m/s, 192° | 714 W/m² | - |
| 1778005529 | 18.89° C | 66% | 1017.4 hPa | 0 mm | 1.79 m/s, 143° | 698 W/m² | - |
| 1778005226 | 18.89° C | 66% | 1017.4 hPa | 0 mm | 0.89 m/s, 231° | 436 W/m² | - |
| 1778004922 | 19.44° C | 63% | 1017.4 hPa | 0 mm | 0.45 m/s, 6° | 510 W/m² | - |
| 1778004620 | 18.89° C | 66% | 1017.3 hPa | 0 mm | 0.89 m/s, 141° | 817 W/m² | - |
| 1778004315 | 19.44° C | 66% | 1017.3 hPa | 0 mm | 1.79 m/s, 254° | 477 W/m² | - |
| 1778004020 | 19.44° C | 64% | 1017.3 hPa | 0 mm | 0.89 m/s, 244° | 827 W/m² | - |
| 1778003708 | 18.89° C | 62% | 1017.2 hPa | 0 mm | 1.79 m/s, 351° | 521 W/m² | - |
* Rain latest hour (hover to see other rain measurements)
** Current wind speed in m/s (hover to see current wind gust speed)